This is the latest recevied weather packets stored in our database for station/object K9MWD. If no packets are shown the sender has not sent any weather packets the latest 10 day(s).
| Time | Temp. | Humidity | Pressure | Rain* | Wind** | Luminosity | Snow |
|---|---|---|---|---|---|---|---|
| 1777947522 | 23.33° C | 73% | 1006.9 hPa | 0 mm | - | 0 W/m² | - |
| 1777947219 | 23.33° C | 73% | 1006.7 hPa | 0 mm | - | 0 W/m² | - |
| 1777946915 | 23.33° C | 73% | 1006.8 hPa | 0 mm | - | 0 W/m² | - |
| 1777946610 | 23.33° C | 73% | 1006.7 hPa | 0 mm | - | 0 W/m² | - |
| 1777946307 | 23.33° C | 72% | 1006.7 hPa | 0 mm | - | 0 W/m² | - |
| 1777946004 | 23.33° C | 72% | 1007 hPa | 0 mm | - | 0 W/m² | - |
| 1777945702 | 23.89° C | 72% | 1006.7 hPa | 0 mm | - | 0 W/m² | - |
| 1777945399 | 23.89° C | 72% | 1006.9 hPa | 0 mm | - | 0 W/m² | - |
| 1777945095 | 23.89° C | 71% | 1006.9 hPa | 0 mm | - | 0 W/m² | - |
| 1777944792 | 23.89° C | 70% | 1006.8 hPa | 0 mm | - | 0 W/m² | - |
| 1777944491 | 23.89° C | 70% | 1006.9 hPa | 0 mm | - | 0 W/m² | - |
| 1777944188 | 23.89° C | 69% | 1006.9 hPa | 0 mm | - | 0 W/m² | - |
| 1777943884 | 23.89° C | 69% | 1006.7 hPa | 0 mm | - | 1 W/m² | - |
| 1777943581 | 23.89° C | 70% | 1006.6 hPa | 0 mm | - | 1 W/m² | - |
| 1777943277 | 24.44° C | 70% | 1006.7 hPa | 0 mm | - | 3 W/m² | - |
| 1777942973 | 24.44° C | 70% | 1006.7 hPa | 0 mm | - | 4 W/m² | - |
| 1777942669 | 24.44° C | 69% | 1006.8 hPa | 0 mm | - | 7 W/m² | - |
| 1777942367 | 24.44° C | 68% | 1006.8 hPa | 0 mm | - | 10 W/m² | - |
| 1777942064 | 25° C | 68% | 1006.7 hPa | 0 mm | - | 14 W/m² | - |
| 1777941760 | 25° C | 67% | 1006.9 hPa | 0 mm | - | 19 W/m² | - |
| 1777941457 | 25° C | 67% | 1006.9 hPa | 0 mm | - | 22 W/m² | - |
| 1777941155 | 25° C | 67% | 1007 hPa | 0 mm | - | 27 W/m² | - |
| 1777940851 | 25° C | 67% | 1007.1 hPa | 0 mm | - | 38 W/m² | - |
| 1777940548 | 25° C | 66% | 1007.1 hPa | 0 mm | - | 50 W/m² | - |
| 1777940246 | 25.56° C | 66% | 1007.2 hPa | 0 mm | - | 68 W/m² | - |
* Rain latest hour (hover to see other rain measurements)
** Current wind speed in m/s (hover to see current wind gust speed)